Regional Weather Roundup
Issued by NWS

Home | Current Version | Previous Version | Text Only | Print | Product List | Glossary Off
Versions: 1 2 3 4 5 6 7 8 9 10 11 12 13 14 15 16 17 18 19 20 21 22 23 24 25 26 27 28 29 30 31 32 33 34 35 36 37 38 39 40 41 42 43 44 45 46 47 48 49 50

000
ASUS43 KBIS 260031
RWRND
NORTH DAKOTA REGIONAL WEATHER ROUNDUP
NATIONAL WEATHER SERVICE EASTERN NORTH DAKOTA/GRAND FORKS ND
700 PM CDT WED APR 25 2018

  NOTE: "FAIR" INDICATES FEW OR NO CLOUDS BELOW 12,000 FEET WITH NO
  SIGNIFICANT WEATHER AND/OR OBSTRUCTIONS TO VISIBILITY.

NDZ001>003-009>011-017-260100-
...NORTHWEST NORTH DAKOTA...

CITY           SKY/WX    TMP DP  RH WIND       PRES   REMARKS
WILLISTON      FAIR      66  29  24 N21G31    29.83R
6HR MIN TEMP:  60; 6HR MAX TEMP:  70;

MINOT          FAIR      68  28  22 SW12      29.75F
MINOT AFB      FAIR      67  30  25 NW13      29.74S
6HR MIN TEMP:  64; 6HR MAX TEMP:  72;

$$

NDZ018>021-031>035-040>046-260100-
...SOUTHWEST NORTH DAKOTA...

CITY           SKY/WX    TMP DP  RH WIND       PRES   REMARKS
BISMARCK       FAIR      69  25  19 SW13      29.81F
DICKINSON      FAIR      64  30  27 W13G23    29.83S
GARRISON         N/A     65  27  23 NW14      29.78S
HETTINGER      FAIR      66  28  24 NW16      29.87R
$$

NDZ004>008-012>016-024-026-027-054-260100-
...NORTHEAST NORTH DAKOTA...

CITY           SKY/WX    TMP DP  RH WIND       PRES   REMARKS
GRAND FORKS    PTSUNNY   59  40  49 SW16G25   29.81F
GRAND FORKS AF FAIR      61  36  39 S10       29.80F
DEVILS LAKE    FAIR      57  29  34 SW13      29.77F
$$

NDZ022-023-025-028>030-036>039-047>053-260100-
...SOUTHEAST NORTH DAKOTA...

CITY           SKY/WX    TMP DP  RH WIND       PRES   REMARKS
JAMESTOWN      FAIR      62  29  28 SW14G23   29.84S
FARGO          FAIR      62  31  31 S22       29.87F
WAHPETON       FAIR      59  32  36 S15       29.91F
$$




USA.gov is the U.S. government's official web portal to all federal, state and local government web resources and services.